PROFILE

 METAR AND TAF INFORMATION
ADDS - METARS form results

(0744 UTC 19 August 2019)
http://aviationweather.gov/metar/data/
 
LEIB 190730Z VRB02KT 9999 BKN015 27/23 Q1013 NOSIG
LEIB 190700Z VRB01KT 9999 FEW012 BKN017 27/23 Q1013 NOSIG
TAF COR LEIB 190219Z 1903/2003 VRB05KT 9999 SCT009 TX31/1912Z TN22/1906Z PROB40 TEMPO 1903/1906 3000 BR BKN008 PROB30 TEMPO 1903/1906 0500 BCFG BKN005 BECMG 1906/1908 10010KT 

 AIRPORT MAP

 RUNWAY INFORMATION
Runway 06 Runway length 9186 ft Runway width 148 ft
Runway elevation 13 ft Runway displaced threshold 0 ft Runway heading 62
Runway 24 Runway length 9186 ft Runway width 148 ft
Runway elevation 16 ft Runway displaced threshold 0 ft Runway heading 242

 AIRPORT FREQUENCIES
Type APP Name PALMA APP Frequency 118.125 MHZ
Type APP Name APP Frequency 119.8 MHZ
Type ATIS Name ATIS Frequency 117.8 MHZ
Type GND Name GND Frequency 121.8 MHZ
Type TWR Name TWR Frequency 118.5 MHZ

 AIRPORT NEAR NAVIGATION AIDS
Type VOR-DME Name Ibiza Frequency 117800 KHZ
Type NDB Name Ibiza Frequency 394 KHZ